TimeMDT,TemperatureF,Dew PointF,Humidity,Sea Level PressureIn,VisibilityMPH,Wind Direction,Wind SpeedMPH,Gust SpeedMPH,PrecipitationIn,Events,Conditions,WindDirDegrees,DateUTC
12:53 AM,51.1,48.0,89,30.09,10.0,WSW,4.6,-,N/A,,Partly Cloudy,250,2012-09-28 06:53:00
1:53 AM,51.1,46.9,86,30.08,10.0,SW,5.8,-,N/A,,Partly Cloudy,220,2012-09-28 07:53:00
2:53 AM,50.0,46.0,86,30.07,10.0,SSW,8.1,-,N/A,,Partly Cloudy,200,2012-09-28 08:53:00
3:53 AM,46.9,43.0,86,30.08,10.0,South,6.9,-,N/A,,Partly Cloudy,180,2012-09-28 09:53:00
4:53 AM,46.0,43.0,89,30.09,10.0,South,6.9,-,N/A,,Partly Cloudy,170,2012-09-28 10:53:00
5:53 AM,46.9,42.1,83,30.11,10.0,Calm,Calm,-,N/A,,Partly Cloudy,0,2012-09-28 11:53:00
6:53 AM,45.0,41.0,86,30.14,10.0,SSE,6.9,-,N/A,,Scattered Clouds,160,2012-09-28 12:53:00
7:53 AM,48.0,43.0,83,30.14,8.0,SSE,5.8,-,N/A,,Scattered Clouds,160,2012-09-28 13:53:00
8:53 AM,54.0,45.0,72,30.13,9.0,SW,8.1,-,N/A,,Partly Cloudy,220,2012-09-28 14:53:00
9:53 AM,57.9,43.0,58,30.13,10.0,SW,4.6,-,N/A,,Partly Cloudy,230,2012-09-28 15:53:00
10:53 AM,61.0,42.1,50,30.12,10.0,WSW,4.6,-,N/A,,Partly Cloudy,240,2012-09-28 16:53:00
11:53 AM,64.9,42.1,43,30.10,10.0,WNW,4.6,-,N/A,,Partly Cloudy,300,2012-09-28 17:53:00
12:53 PM,68.0,39.2,35,30.22,10.0,Variable,3.5,-,N/A,,Scattered Clouds,0,2012-09-28 18:53:00
1:53 PM,69.1,39.0,33,30.04,10.0,Variable,3.5,-,N/A,,Scattered Clouds,0,2012-09-28 19:53:00
2:53 PM,70.0,39.9,33,30.03,10.0,East,5.8,-,N/A,,Scattered Clouds,90,2012-09-28 20:53:00
3:53 PM,68.0,39.0,35,30.02,10.0,Variable,3.5,-,N/A,,Scattered Clouds,0,2012-09-28 21:53:00
4:53 PM,69.1,39.0,33,30.01,10.0,ESE,8.1,-,N/A,,Scattered Clouds,120,2012-09-28 22:53:00
5:53 PM,66.9,39.9,37,30.03,10.0,ESE,6.9,-,N/A,,Scattered Clouds,110,2012-09-28 23:53:00
6:53 PM,60.1,46.0,60,30.05,10.0,East,6.9,-,N/A,,Scattered Clouds,100,2012-09-29 00:53:00
7:53 PM,57.9,45.0,62,30.06,10.0,SE,6.9,-,N/A,,Scattered Clouds,130,2012-09-29 01:53:00
8:53 PM,55.9,45.0,67,30.06,10.0,SE,6.9,-,N/A,,Scattered Clouds,130,2012-09-29 02:53:00
9:53 PM,52.0,45.0,77,30.07,10.0,South,9.2,-,N/A,,Scattered Clouds,170,2012-09-29 03:53:00
10:53 PM,53.1,45.0,74,30.05,10.0,South,9.2,-,N/A,,Partly Cloudy,180,2012-09-29 04:53:00
11:53 PM,54.0,46.0,75,30.03,10.0,South,8.1,-,N/A,,Partly Cloudy,190,2012-09-29 05:53:00